sat.trackr.live / text

‹ back to catalog

STARLINK-3636

NORAD 51995 · 2022-025AR

PAYLOAD ACTIVE UNKNOWN

§ Identity

Operator
Country
US
Launch date
2022-03-09
Launch site
AFETR
Launch vehicle
Mass (kg)
RCS (m²)

Purposes: comms

External: N2YO · Heavens-Above · Gunter

§ Orbital elements

Epoch: 2026-05-25T02:48:36.383328Z

Period
95.44 min
Inclination
53.2139°
Eccentricity
0.0001593
Mean motion
15.08837957 rev/d
Perigee alt
538.6 km
Apogee alt
540.9 km
Semi-major
6,917.9 km
B*
-7.0754e-6
RAAN
36.0238°
Arg perigee
88.7104°
Mean anomaly
271.4071°
Rev number
23,244

§ Raw data

STARLINK-36361 51995U 22025AR  26145.11708777 -.00000401  00000+0 -70754-5 0  99902 51995  53.2139  36.0238 0001593  88.7104 271.4071 15.08837957232442

JSON: /api/v1/satellites/51995 · /tle

For live sub-satellite position, see the globe view (requires WebGL).

§ Visibility from observer

Set your observer location to see the next 7 days of passes ≥ 10°. The values pass through the URL so the page stays shareable.

No JS? Fill the form by hand. The geolocation button needs JavaScript.